RESURS-P 4

Last updated on Fri Oct 04 2024 00:02:26 GMT+0000 (Coordinated Universal Time)

1 59371U 24061A 24277.56942160 .00013687 00000+0 40961-3 0 9990 2 59371 97.1974 227.7406 0003089 94.3170 265.8426 15.34648332 28536
UTC large
Height (km)
Speed (km/s)
/
Latitude / Longitude
Inclination (degrees)
Orbital Period (minutes)
Azimuth
Elevation
Range (km)
Doppler Factor

Next 0 passes for location: London (51.5072 / 0.1276)

Sorry there are no passes over London.